Tracking 20036 objects as of 21-Nov-2019
Live streaming from Space Station
objects crossing your sky now

DELTA 1 DEB

Track DELTA 1 DEB now!
10-day predictions


NORAD ID: 7940
Int'l Code: 1972-058CF
Perigee: 646.0 km
Apogee: 1,139.7 km
Inclination: 98.1 °
Period: 102.7 minutes
Semi major axis: 7263 km
RCS: 0.0419 m2 (small)
Launch date: July 23, 1972
Source: United States (US)
Launch site: AIR FORCE WESTERN TEST RANGE (AFWTR)

Note: This is SATELLITE DEBRIS
aabbcc
Your satellite tracking list
Your tracking list is empty




NASA's NSSDC Master Catalog

Two Line Element Set (TLE):
1  7940U 72058CF  19325.27063522 -.00000034  00000-0  43168-5 0  9994
2  7940  98.0509 230.3977 0339833 302.8283  54.0585 14.02341509404003
Source of the keplerian elements: AFSPC